Tracking 23762 objects as of 22-Oct-2021
HD Live streaming from Space Station
objects crossing your sky now

GONETS M 19

Track GONETS M 19 now!
10-day predictions


NORAD ID: 46488
Int'l Code: 2020-068C
Perigee: 1,489.7 km
Apogee: 1,513.3 km
Inclination: 82.5 °
Period: 115.9 minutes
Semi major axis: 7872 km
RCS: Unknown
Launch date: September 28, 2020
Source: Commonwealth of Independent States (former USSR) (CIS)
Launch site: PLESETSK MISSILE AND SPACE COMPLEX (PKMTR)
aabbcc
Your satellite tracking list
Your tracking list is empty




NASA's NSSDC Master Catalog

Two Line Element Set (TLE):
1 46488U 20068C   21294.45473030  .00000038  00000-0  20121-3 0  9990
2 46488  82.4966 324.7345 0014998 149.5414 210.6539 12.42894897 48208
Source of the keplerian elements: AFSPC